Tracking 25612 objects as of 21-May-2022
HD Live streaming from Space Station
objects crossing your sky now

COSMOS 1275 DEB

Track COSMOS 1275 DEB now!
10-day predictions


NORAD ID: 17615
Int'l Code: 1981-053KM
Perigee: 844.1 km
Apogee: 913.5 km
Inclination: 82.9 °
Period: 102.4 minutes
Semi major axis: 7249 km
RCS: 0.0146 m2 (small)
Launch date: June 4, 1981
Source: Commonwealth of Independent States (former USSR) (CIS)
Launch site: PLESETSK MISSILE AND SPACE COMPLEX (PKMTR)

Note: This is SATELLITE DEBRIS
aabbcc
Your satellite tracking list
Your tracking list is empty




NASA's NSSDC Master Catalog

Two Line Element Set (TLE):
1 17615U 81053KJ  22139.47058469  .00002405  00000-0  14318-2 0  9997
2 17615  82.8640 215.7343 0047840 100.8020 273.1395 14.06420390883041
Source of the keplerian elements: AFSPC